Accueil
METAR-TAF:

METAR-TAF

Aéroports :

Arnhem, Pays-Bas

latitude: 52-04N, longitude: 005-53E, altitude: 48 m

Observation

Le bulletin a été fait il y a 24 minutes, à 02:55 UTC
Vent 1 kt de sud
Température 11°C
Humidité 100%
Pression 1011 hPa
Visibilité: 0550 m
brouillard

METAR: EHDL 190255Z AUTO 19001KT 0550 FG NCD 11/11 Q1011 BLACKRED

Heure: 05:19 (03:19 UTC)


TAF: absent

Observations et prévisions météorologiques de plus de 4000 aéroports (messages METAR et TAF).

Les stations disponibles sont représentées par des disques jaunes et rouges sur la carte.

Passer la souris dessus pour voir le nom de la station.

Cliquer dessus pour voir les observations et prévisions météorologiques.

Pour changer de carte: cliquez sur les boutons verts avec une croix noire pour zoomer, sur le bouton vert avec un tiret pour effectuer un zoom arrière, ou sur les flèches vertes pour les cartes adjacentes.


METAR-TAF: